Temperature
17 17 16 16 16 16 16 16 16 17 16 16 16 16 16 16 16 16 15 15 15 15 15 15 15 15 15 15 15 15 16 16 16 16 16 16 16 16 16 16 16 16 16
17 17 16 16 16 16 16 16 16 16 16 16 16 16 16 16 15 15 15 15 15 15 15 15 15 15 15 15 15 15 15 15 15 15 15 16 16 16 16 16 16 16 16
17 17 16 16 16 16 16 16 16 16 16 16 16 16 16 15 15 15 15 15 15 15 15 15 15 15 15 15 15 15 15 15 15 15 15 15 15 15 15 16 16 16 16
17 17 17 16 16 16 16 16 16 16 16 16 16 16 16 15 15 15 15 15 15 15 15 15 15 15 15 15 15 15 15 15 15 15 15 15 15 15 15 15 15 15 15
17 17 17 16 16 16 16 16 16 16 16 16 16 16 16 16 15 15 15 15 15 15 15 14 14 14 14 14 14 14 14 15 15 15 15 15 15 15 15 15 15 15 15
17 17 17 16 16 16 16 16 16 16 16 16 16 16 16 16 15 15 15 15 15 15 14 14 14 14 14 14 14 14 14 14 14 14 14 14 14 15 15 15 15 15 15
17 17 16 16 16 16 16 16 16 16 16 16 16 16 16 16 16 15 15 15 15 15 14 14 14 14 14 14 14 14 14 14 14 14 14 14 14 14 14 14 14 14 14
16 17 16 16 16 16 16 16 16 16 16 16 16 16 16 16 16 15 15 15 15 15 14 14 14 13 13 14 14 14 14 14 14 14 14 14 14 14 14 14 14 14 14
16 16 16 16 16 16 16 16 16 16 16 16 16 16 16 16 15 15 15 15 15 15 14 14 14 13 13 13 13 13 14 14 14 14 14 13 13 13 13 13 13 13 13
16 16 16 16 16 16 16 16 16 15 15 15 15 16 16 16 15 15 15 15 15 15 14 14 14 13 13 13 13 13 13 13 14 14 13 13 13 13 13 13 13 13 13
16 16 16 16 16 16 16 16 16 16 15 15 15 15 15 15 16 15 15 15 15 15 14 14 14 13 13 13 13 13 13 13 13 14 14 13 13 13 13 13 13 13 13
16 16 16 16 16 16 16 16 16 15 15 15 15 15 15 15 15 15 15 15 15 15 14 14 14 13 13 13 13 13 13 13 13 13 13 13 13 13 13 13 13 13 13
16 16 16 16 16 16 16 16 15 15 15 15 15 15 15 15 15 15 15 15 15 14 14 14 14 13 13 13 13 13 13 13 13 13 13 13 13 13 13 13 13 13 13
16 16 16 16 16 16 16 15 15 15 15 15 15 15 15 15 14 14 14 14 14 14 14 14 13 13 13 13 13 13 13 13 13 13 13 13 13 13 13 13 13 13 13
16 16 16 16 16 16 16 15 15 15 15 15 15 15 14 14 14 14 14 14 14 14 14 13 13 13 13 13 12 12 12 12 12 13 13 13 13 13 13 13 13 12 12
16 16 16 16 16 16 15 15 15 15 15 15 14 14 14 14 14 14 14 14 13 13 13 13 13 13 13 12 12 12 12 12 12 12 12 12 12 12 12 12 12 12 12
16 16 16 16 16 16 15 15 15 15 14 14 14 14 14 14 14 14 14 13 13 13 13 13 13 13 12 12 12 12 12 12 12 12 12 12 12 12 12 12 12 12 12
16 16 16 16 16 15 15 15 15 15 14 14 14 14 14 14 14 13 13 13 13 13 12 12 12 12 12 12 12 12 12 12 12 12 12 12 12 12 12 12 12 11 11
16 16 16 16 15 15 15 15 15 14 14 14 14 14 13 13 13 13 13 13 13 12 12 12 12 12 12 12 12 12 12 11 11 11 11 11 11 11 11 11 11 11 11
16 16 16 16 15 15 15 15 14 14 14 14 14 13 13 13 13 13 13 13 12 12 12 12 11 11 11 11 11 11 11 11 11 11 11 11 11 11 11 11 11 10 10
16 16 15 15 15 15 15 14 14 14 14 14 13 13 13 13 13 13 13 12 12 12 12 11 11 11 11 11 11 11 11 11 11 11 11 11 10 10 10 10 10 10 10
15 15 15 15 15 15 14 14 14 13 13 13 13 13 13 13 13 12 12 12 12 12 11 11 11 11 11 11 11 10 10 10 10 10 10 10 10 10 10 10 10 9 9
15 15 15 15 15 14 14 14 14 13 13 13 13 13 13 12 12 12 12 12 12 11 11 11 11 11 10 10 10 10 10 10 10 10 9 9 9 9 9 9 9 9 9
15 15 14 14 14 14 14 14 13 13 13 13 12 12 12 12 12 12 12 12 11 11 11 11 11 10 10 10 10 10 9 9 9 9 9 9 9 9 9 9 9 8 8
14 14 14 14 14 14 14 13 13 13 13 13 12 12 12 12 12 11 11 11 11 11 11 10 10 10 10 10 10 9 9 9 9 9 9 8 8 8 8 8 8 8 8
14 14 14 14 14 13 13 13 13 13 12 12 12 12 12 11 11 11 11 11 11 10 10 10 10 10 9 9 9 9 9 8 8 8 8 8 7 7 7 7 7 7 7
Wind_Speed
2 3 4 3 3 4 3 2 4 6 6 7 8 8 7 8 9 10 10 12 12 12 12 12 12 12 12 12 11 11 10 10 10 10 9 9 8 7 6 6 6 5 5
3 2 3 3 3 4 4 4 4 4 4 4 5 6 6 6 7 9 10 10 11 11 11 11 12 12 12 12 12 12 11 11 11 10 9 8 7 7 6 6 6 6 6
5 4 3 3 3 4 5 4 4 4 3 3 3 3 4 4 5 6 8 9 9 10 11 11 11 12 12 13 13 13 12 12 12 11 10 9 8 7 6 6 7 6 6
8 6 3 3 4 5 4 3 3 3 3 3 3 3 3 3 4 4 6 7 8 9 9 10 11 12 12 13 13 13 13 13 13 12 11 9 8 7 6 6 7 7 7
7 6 3 2 5 4 3 3 4 3 3 2 2 1 2 2 2 4 5 6 7 9 9 9 10 11 12 13 13 13 13 13 13 13 13 11 9 8 8 7 7 7 7
7 6 3 4 5 3 3 3 3 2 1 1 2 2 1 2 2 3 3 4 5 7 7 8 8 9 11 12 13 13 13 13 13 13 13 12 10 8 7 7 7 7 7
5 4 3 3 3 3 2 3 3 2 1 1 2 1 0 2 3 3 2 3 3 5 6 6 7 8 8 11 12 13 13 13 13 12 12 12 11 9 7 7 7 7 7
4 3 3 2 3 3 3 3 3 2 1 1 1 1 1 2 2 2 2 2 3 4 5 6 8 8 8 8 10 12 13 13 12 12 11 11 11 10 8 8 7 7 7
4 3 2 2 2 3 2 1 2 2 1 2 2 2 1 0 1 1 1 3 3 3 2 4 6 8 10 9 9 10 12 13 13 12 10 10 10 10 9 8 8 7 7
3 2 2 2 2 2 2 1 1 1 1 1 2 2 2 2 1 1 2 1 3 3 3 4 6 7 9 10 10 10 11 12 13 12 10 10 10 9 9 9 8 8 8
3 2 1 2 2 2 2 2 2 2 1 1 1 1 2 2 1 1 1 1 1 1 3 3 4 6 9 9 9 9 10 11 12 11 10 10 10 9 9 9 8 8 8
2 2 2 1 1 2 2 2 1 1 1 1 2 2 1 1 2 1 1 1 0 0 2 3 3 4 6 7 7 8 9 9 10 10 10 10 9 9 8 8 8 8 7
2 3 2 1 1 2 2 2 1 1 1 1 1 1 2 2 1 2 2 1 1 0 1 2 2 4 5 7 6 6 6 7 8 9 9 9 9 8 8 8 7 7 7
3 4 3 2 2 2 2 2 1 0 1 1 0 1 1 2 2 2 1 2 2 2 1 1 2 4 5 6 5 4 4 6 6 7 8 8 8 8 7 7 7 7 7
3 4 4 3 2 2 2 2 1 1 1 1 1 1 1 1 1 2 2 1 1 1 1 1 1 2 4 5 5 3 3 4 5 5 6 7 7 7 7 7 7 7 7
2 4 3 3 3 3 2 2 1 0 2 1 1 2 1 1 1 1 1 1 1 1 0 1 1 1 3 3 4 3 3 3 3 4 4 4 6 7 7 7 7 7 7
4 4 3 3 3 3 3 3 2 1 1 1 1 1 1 1 1 1 1 1 1 1 0 1 1 1 2 2 2 1 1 1 1 2 1 2 4 5 6 6 7 7 7
3 3 4 3 2 3 3 3 2 2 1 1 1 1 1 1 1 1 1 1 1 0 1 0 1 2 1 1 1 1 1 2 1 1 1 1 2 3 4 5 5 6 6
4 3 4 3 2 2 1 2 2 2 2 1 1 1 1 1 0 0 0 1 1 1 1 0 1 1 1 2 2 2 2 2 2 1 2 1 1 3 4 4 4 5 5
3 3 3 3 3 2 1 1 1 2 2 1 2 1 1 2 1 0 0 0 1 0 1 0 1 1 1 2 1 2 3 3 2 3 0 1 2 3 4 4 4 4 4
2 2 3 3 2 2 1 1 0 1 1 2 2 1 2 4 4 2 1 1 1 1 0 0 1 1 2 2 2 2 2 3 3 2 1 1 1 2 3 4 3 4 3
2 2 3 3 2 2 3 3 2 0 1 2 2 1 2 3 3 4 4 3 2 1 1 0 1 1 2 2 2 2 2 2 3 3 2 3 1 2 2 2 3 3 3
2 2 2 3 2 2 3 3 2 1 1 0 1 1 1 1 2 2 1 1 2 2 1 1 2 3 2 2 2 3 2 2 3 3 2 4 3 3 3 3 5 5 5
3 3 2 3 3 2 3 2 1 0 1 1 1 1 1 1 1 1 1 0 1 3 3 2 2 2 2 2 2 2 3 3 4 3 1 3 4 4 4 3 6 7 7
2 2 2 2 2 2 2 2 2 1 1 2 1 1 1 0 1 1 1 1 2 2 2 1 2 2 4 5 4 2 2 2 4 4 2 2 3 4 4 3 5 7 7
2 2 2 2 2 2 2 3 3 1 1 1 1 1 1 0 1 0 1 2 2 3 2 2 2 3 3 4 4 1 2 2 3 4 3 2 3 3 4 3 3 4 5
Wind_Direction
93 94 90 68 81 87 77 42 49 58 56 51 49 55 56 64 84 93 96 87 79 69 62 57 53 48 46 46 45 44 42 40 38 34 32 30 28 27 35 41 45 48 52
82 77 89 74 64 76 79 66 66 68 72 67 53 53 52 59 77 103 110 98 87 76 66 60 56 50 47 47 45 45 42 39 34 31 29 28 28 30 39 45 50 54 55
82 74 74 74 61 59 77 70 66 65 74 82 83 76 70 58 69 83 109 115 104 86 73 65 59 53 49 47 44 42 41 37 32 28 26 25 25 30 36 45 48 54 56
84 72 62 70 63 50 62 66 60 52 57 59 58 50 70 60 67 75 89 107 113 103 89 75 66 58 51 47 43 41 38 34 31 27 23 21 24 31 43 53 52 53 55
73 84 69 68 71 60 51 58 56 52 60 56 82 87 90 76 54 55 72 81 97 111 109 96 81 68 57 49 45 41 37 33 30 27 26 28 32 40 48 52 54 53 54
53 69 78 75 75 69 44 52 70 59 62 46 58 78 110 118 91 65 62 74 81 99 113 119 110 85 65 53 45 38 33 31 30 28 28 29 32 39 48 52 54 55 53
56 63 62 70 79 84 71 62 63 49 20 52 62 24 48 100 97 97 73 66 75 80 93 100 104 108 87 62 48 37 29 27 27 26 28 28 29 37 47 53 54 56 56
55 74 82 82 91 89 67 48 60 36 350 30 75 62 32 25 355 104 108 93 72 69 63 71 78 87 94 87 57 40 29 23 22 22 24 28 32 37 46 51 50 49 50
76 65 82 101 112 104 104 78 69 58 8 340 41 67 79 68 324 12 90 99 93 73 56 70 73 72 80 84 66 44 30 22 20 20 22 29 35 38 41 47 49 48 46
96 72 55 73 94 107 114 100 88 61 62 345 355 29 57 104 115 344 337 67 100 89 70 56 59 65 76 81 72 52 35 24 20 19 24 32 35 39 44 47 47 46 44
125 126 98 80 97 107 111 101 77 57 71 23 353 354 6 13 312 122 309 333 26 87 94 84 76 69 72 80 76 57 42 29 25 27 31 34 35 36 42 43 43 41 39
159 160 137 115 128 133 119 99 96 97 74 34 6 6 33 24 354 26 18 335 14 141 107 97 89 90 87 81 71 63 45 34 29 31 34 34 34 35 37 37 35 34 32
168 173 135 170 156 122 110 107 87 89 108 91 28 357 24 10 25 37 40 1 355 290 113 100 111 101 95 98 88 71 45 34 32 32 32 32 31 31 32 31 28 25 22
175 156 149 158 132 124 125 117 109 154 133 134 147 96 37 353 20 41 74 54 356 340 42 96 80 91 88 104 107 83 50 38 37 33 29 28 27 25 24 23 20 16 13
158 139 148 152 136 127 122 127 135 185 113 61 60 78 79 31 20 21 41 78 98 5 342 11 57 59 84 92 109 85 71 59 42 32 28 28 25 22 18 14 13 9 7
140 133 146 142 147 141 137 133 146 167 114 81 79 62 40 10 19 43 29 12 49 125 295 349 44 68 52 66 98 80 74 59 31 19 23 24 22 20 19 17 15 10 6
152 148 153 157 162 156 147 139 152 157 145 158 141 131 119 55 33 24 20 10 1 52 79 325 1 32 49 28 62 51 43 107 23 12 31 20 16 15 11 6 4 5 4
160 161 160 159 148 146 145 147 167 155 160 172 178 142 140 96 41 16 21 342 333 17 120 296 321 353 357 12 350 311 350 349 0 295 219 259 349 2 356 350 350 355 359
167 166 153 144 134 114 117 135 155 158 169 177 137 120 114 105 117 61 21 336 325 359 68 152 286 322 331 338 339 332 331 314 306 289 225 225 315 330 327 326 333 336 346
160 155 136 129 127 120 105 105 142 157 151 130 107 104 103 104 83 16 133 339 344 17 14 358 296 309 310 313 356 328 328 328 313 322 302 247 273 296 308 306 312 322 332
129 128 117 115 114 110 91 93 179 156 149 138 134 141 120 105 93 83 69 34 23 14 318 275 294 314 320 336 319 303 307 308 314 315 313 297 274 278 287 274 278 295 312
105 101 114 116 106 88 68 65 33 292 184 163 159 170 136 108 111 94 72 56 50 30 298 324 298 289 291 290 302 310 315 330 311 318 340 303 306 288 276 245 244 260 278
143 135 129 125 121 102 90 66 28 340 334 337 167 170 156 141 125 132 120 28 350 336 265 207 245 271 285 293 307 317 310 292 274 286 325 299 304 294 285 263 239 243 257
145 150 152 144 130 116 110 94 64 317 321 323 304 214 196 163 109 133 156 170 275 282 271 246 229 261 284 306 283 268 264 284 287 301 319 283 296 293 307 279 257 249 250
141 145 148 152 153 155 146 146 141 187 237 278 294 3 46 127 58 97 132 199 285 295 294 265 251 286 307 322 332 337 321 308 297 296 295 272 292 298 294 278 269 263 265
159 159 166 170 174 172 163 165 166 183 218 264 290 337 352 7 29 100 213 219 251 263 273 307 301 297 309 324 333 312 273 280 288 295 306 309 303 320 310 300 316 303 292
Height
1552 1552 1552 1552 1552 1552 1553 1553 1553 1554 1554 1555 1555 1555 1555 1555 1554 1553 1553 1553 1552 1551 1550 1550 1549 1548 1547 1547 1546 1545 1544 1542 1541 1540 1539 1538 1538 1537 1537 1537 1537 1537 1538
1553 1553 1553 1553 1554 1554 1554 1554 1555 1555 1556 1556 1556 1556 1556 1556 1556 1555 1554 1554 1553 1553 1552 1551 1550 1549 1548 1547 1546 1545 1544 1542 1540 1539 1537 1536 1536 1536 1536 1536 1537 1537 1537
1554 1554 1554 1554 1555 1555 1555 1556 1556 1556 1557 1557 1557 1557 1557 1557 1557 1557 1556 1555 1554 1554 1553 1552 1551 1550 1549 1548 1547 1545 1544 1542 1540 1538 1535 1534 1533 1533 1534 1535 1536 1536 1537
1555 1555 1555 1555 1556 1556 1556 1557 1557 1557 1558 1558 1558 1559 1559 1558 1558 1558 1558 1557 1556 1555 1554 1553 1552 1551 1550 1549 1547 1546 1544 1542 1539 1536 1533 1530 1529 1529 1531 1533 1535 1535 1536
1555 1555 1556 1556 1556 1557 1557 1557 1558 1558 1558 1559 1559 1559 1560 1560 1560 1559 1559 1558 1557 1556 1555 1554 1553 1552 1551 1550 1548 1546 1544 1542 1539 1535 1531 1528 1527 1528 1530 1532 1534 1535 1535
1556 1556 1556 1557 1557 1557 1558 1558 1558 1559 1559 1560 1560 1560 1560 1560 1560 1560 1560 1559 1559 1558 1556 1555 1554 1553 1552 1550 1548 1546 1544 1542 1539 1536 1532 1529 1528 1528 1530 1532 1533 1534 1535
1556 1557 1557 1557 1557 1558 1558 1559 1559 1560 1560 1560 1561 1560 1561 1561 1561 1561 1561 1560 1560 1559 1558 1557 1555 1554 1552 1551 1549 1547 1545 1542 1540 1537 1534 1531 1530 1529 1530 1532 1533 1534 1535
1557 1557 1557 1558 1558 1558 1559 1559 1560 1560 1561 1561 1561 1561 1561 1563 1562 1562 1561 1561 1561 1560 1559 1558 1557 1555 1553 1551 1549 1547 1545 1542 1540 1537 1534 1533 1531 1530 1531 1532 1533 1534 1535
1557 1557 1558 1558 1558 1559 1559 1560 1560 1561 1561 1561 1562 1562 1562 1562 1562 1563 1562 1561 1561 1560 1560 1559 1557 1556 1554 1552 1550 1548 1545 1542 1539 1536 1534 1533 1533 1532 1532 1533 1534 1534 1535
1557 1557 1558 1558 1559 1559 1559 1560 1560 1561 1561 1561 1562 1562 1562 1562 1562 1563 1563 1562 1561 1561 1560 1559 1558 1556 1554 1552 1550 1548 1546 1542 1539 1535 1534 1533 1534 1533 1533 1533 1534 1535 1535
1557 1557 1558 1558 1559 1559 1559 1560 1560 1560 1561 1561 1561 1562 1562 1562 1562 1562 1562 1562 1561 1560 1560 1559 1558 1556 1555 1553 1551 1548 1546 1543 1539 1536 1534 1534 1534 1534 1534 1534 1534 1535 1535
1557 1557 1557 1558 1558 1559 1559 1559 1560 1560 1560 1561 1561 1561 1562 1562 1562 1562 1561 1561 1561 1560 1559 1559 1558 1556 1555 1553 1551 1549 1546 1544 1541 1538 1537 1536 1536 1535 1535 1535 1535 1535 1535
1556 1557 1557 1557 1558 1558 1558 1559 1559 1559 1560 1560 1560 1561 1561 1561 1561 1561 1561 1560 1560 1560 1559 1558 1557 1556 1555 1553 1551 1549 1547 1545 1542 1540 1539 1538 1537 1536 1536 1535 1535 1535 1535
1555 1556 1556 1557 1557 1558 1558 1558 1558 1559 1559 1559 1560 1560 1560 1560 1560 1560 1560 1560 1559 1559 1559 1558 1557 1556 1555 1553 1551 1549 1547 1545 1543 1541 1540 1539 1538 1537 1536 1535 1535 1534 1534
1554 1555 1555 1556 1557 1557 1557 1558 1558 1558 1559 1559 1559 1559 1559 1559 1559 1559 1559 1559 1560 1559 1558 1558 1557 1556 1554 1553 1551 1549 1548 1546 1544 1542 1541 1539 1538 1537 1536 1535 1535 1534 1533
1553 1554 1554 1555 1555 1556 1556 1557 1557 1557 1557 1558 1558 1558 1558 1558 1558 1558 1558 1558 1558 1558 1557 1557 1556 1555 1554 1552 1551 1549 1547 1546 1544 1543 1541 1540 1538 1537 1536 1535 1534 1533 1532
1552 1553 1553 1553 1554 1554 1555 1555 1556 1556 1556 1556 1556 1557 1557 1557 1556 1556 1556 1556 1556 1556 1556 1555 1555 1554 1553 1552 1550 1549 1547 1545 1544 1542 1541 1539 1538 1536 1535 1534 1533 1532 1531
1550 1551 1551 1552 1553 1553 1553 1554 1554 1554 1555 1555 1555 1555 1555 1555 1555 1555 1555 1554 1555 1555 1554 1553 1553 1552 1551 1550 1549 1548 1546 1545 1543 1542 1540 1539 1537 1536 1534 1533 1531 1530 1529
1549 1549 1550 1550 1551 1551 1552 1552 1553 1553 1553 1553 1553 1553 1553 1553 1553 1553 1553 1553 1553 1553 1552 1552 1551 1551 1550 1549 1547 1546 1545 1543 1542 1541 1539 1538 1536 1535 1533 1531 1530 1528 1527
1547 1548 1548 1549 1549 1550 1550 1551 1551 1551 1551 1552 1552 1552 1551 1551 1551 1551 1551 1551 1551 1551 1550 1550 1549 1548 1548 1547 1546 1545 1543 1542 1541 1539 1538 1536 1535 1533 1531 1530 1528 1526 1525
1545 1546 1546 1547 1548 1548 1548 1549 1549 1550 1550 1550 1550 1550 1550 1550 1550 1549 1549 1549 1549 1549 1548 1548 1547 1546 1545 1545 1544 1543 1541 1540 1538 1538 1536 1534 1533 1531 1529 1528 1526 1524 1522
1543 1544 1544 1545 1546 1546 1547 1547 1547 1548 1548 1548 1548 1548 1548 1548 1548 1548 1547 1547 1547 1547 1546 1546 1545 1544 1543 1542 1542 1540 1539 1537 1535 1535 1533 1532 1530 1528 1526 1525 1523 1521 1520
1540 1541 1542 1543 1543 1544 1544 1545 1545 1546 1546 1546 1546 1546 1545 1545 1545 1545 1545 1545 1544 1544 1544 1543 1542 1541 1541 1540 1539 1537 1536 1535 1533 1532 1531 1528 1527 1525 1524 1522 1520 1519 1517
1538 1539 1540 1540 1541 1541 1542 1542 1543 1543 1543 1543 1543 1543 1543 1543 1542 1542 1542 1541 1541 1541 1540 1540 1539 1539 1538 1537 1536 1535 1533 1531 1530 1528 1527 1525 1523 1522 1520 1518 1517 1515 1513
1536 1537 1538 1538 1538 1539 1539 1540 1540 1540 1540 1540 1540 1540 1540 1540 1540 1540 1539 1538 1538 1537 1537 1536 1536 1535 1534 1533 1533 1531 1529 1528 1525 1524 1523 1522 1519 1517 1515 1514 1512 1511 1509
1534 1535 1535 1536 1536 1536 1537 1537 1537 1537 1537 1537 1537 1537 1537 1537 1537 1536 1536 1535 1534 1534 1533 1533 1532 1531 1530 1529 1528 1527 1526 1524 1522 1520 1519 1518 1516 1513 1510 1509 1508 1506 1504